[[{"header":{"parameterUnit":"m.s-1","parameterCategory":1,"la1":30.2991,"la2":30.254,"lo1":-89.0895,"lo2":-89.0444,"dy":0.0017,"dx":0.0017,"nx":28,"ny":28,"refTime":"2026-01-11T09:00:00:Z","depth":0,"parameterNumber":2,"parameterNumberName":"U-component_of_WINDS"},"data":[0,0,0,0,0,0,0,0,0,0,0,0,0,0,0,0,0,0,0,0,0,0,0,0,0,0,0,0,0,0,0,0,0,0,0,0,0,0,0,0,0,0,0,0,0,0,0,0,0,0,0,0,0,0,0,0,0,0,-0.39,-0.3901,0,-0.398,-0.3981,-0.3982,-0.398,-0.3979,-0.3977,-0.3976,-0.4062,-0.4065,-0.4069,0,0,0,0,0,0,0,0,0,0,0,0,0,-0.3746,-0.3749,-0.39,-0.3901,-0.3902,-0.398,-0.3981,-0.3983,-0.398,-0.3979,-0.3977,-0.3976,-0.4061,-0.4065,-0.4069,0,0,0,0,0,0,0,0,0,0,0,0,0,-0.3819,-0.375,-0.39,-0.391,-0.3912,-0.398,-0.3981,-0.3983,-0.398,-0.3979,-0.3977,-0.3975,-0.406,-0.4065,-0.407,-0.4134,0,0,-0.4085,-0.4087,0,0,0,0,0,0,0,0,-0.3814,-0.3824,-0.3907,-0.3909,-0.3911,-0.3968,-0.3959,-0.4034,-0.3981,-0.3954,-0.3976,-0.3974,-0.4033,-0.404,-0.4059,-0.4138,-0.4142,-0.4085,-0.4088,-0.409,-0.4092,0,0,0,0,0,0,0,-0.3809,-0.3821,-0.3932,-0.3909,-0.3911,-0.3911,-0.392,-0.3973,-0.4002,-0.3956,-0.3956,-0.3966,-0.4033,-0.4054,-0.4061,-0.4143,-0.4085,-0.409,-0.4093,-0.4095,-0.4279,-0.4281,0,0,0,0,0,0,-0.3802,-0.3817,-0.3929,-0.3934,-0.3858,-0.3915,-0.3925,-0.3952,-0.4001,-0.4007,-0.3967,-0.3965,-0.4046,-0.4055,-0.4064,-0.4143,-0.409,-0.4095,-0.4098,-0.4277,-0.4279,-0.4281,0,0,0,0,0,0,-0.3799,-0.3812,-0.3926,-0.3875,-0.389,-0.392,-0.395,-0.3954,-0.3975,-0.4009,-0.4015,-0.3983,-0.4045,-0.4057,-0.4116,-0.4145,-0.4097,-0.4102,-0.4275,-0.4278,-0.428,-0.4301,0,0,0,0,0,0,-0.3794,-0.3811,-0.3835,-0.3876,-0.3893,-0.3977,-0.3952,-0.3957,-0.3983,-0.3981,-0.4025,-0.4031,-0.4045,-0.4109,-0.4121,-0.4151,-0.4106,-0.4272,-0.4276,-0.428,-0.4298,-0.4304,-0.4309,0,0,0,0,0,-0.3789,-0.3839,-0.3836,-0.385,-0.3924,-0.3979,-0.3988,-0.4002,-0.3985,-0.401,-0.4032,-0.403,-0.414,-0.4115,-0.4129,-0.4161,-0.4271,-0.4275,-0.4279,-0.4295,-0.4303,-0.4309,0,0,0,0,0,0,-0.3802,-0.3844,-0.3842,-0.3907,-0.3939,-0.3978,-0.401,-0.401,-0.4048,-0.4045,-0.4061,-0.4071,-0.4131,-0.4152,-0.4123,-0.4226,-0.4203,-0.421,-0.421,-0.4218,-0.4224,-0.4218,-0.411,0,0,0,0,0,-0.3812,-0.3852,-0.3887,-0.3941,-0.3957,-0.3981,-0.4005,-0.4012,-0.4047,-0.4061,-0.4088,-0.4122,-0.4164,-0.4192,-0.4233,-0.43,-0.431,-0.4329,-0.4335,-0.4339,-0.4346,-0.4383,-0.4392,-0.4296,-0.4295,-0.4295,0,0,-0.3834,-0.3862,-0.3887,-0.3944,-0.397,-0.4012,-0.3992,-0.4038,-0.4069,-0.4068,-0.4126,-0.4147,-0.4186,-0.425,-0.4279,-0.4269,-0.4374,-0.4345,-0.4348,-0.4352,-0.4388,-0.4397,-0.4405,-0.4298,-0.4298,-0.4297,0,0,-0.3896,-0.3921,-0.3968,-0.3994,-0.4033,-0.4048,-0.4059,-0.4098,-0.4111,-0.4169,-0.4169,-0.4207,-0.4279,-0.4307,-0.4331,-0.4401,-0.44,-0.4414,-0.4445,-0.4481,-0.4489,-0.4496,-0.4521,-0.453,-0.442,-0.442,-0.442,0,-0.392,-0.3982,-0.3993,-0.4038,-0.4064,-0.4063,-0.4111,-0.4136,-0.4186,-0.4204,-0.4191,-0.4281,-0.4308,-0.4378,-0.4395,-0.4414,-0.4428,-0.441,-0.4486,-0.4493,-0.45,-0.4525,-0.4534,-0.4422,-0.4421,-0.4421,-0.4421,0,-0.4009,-0.4052,-0.4085,-0.4133,-0.4162,-0.4208,-0.4227,-0.4255,-0.4259,-0.4276,-0.4334,-0.4366,-0.4413,-0.4429,-0.4435,-0.45,-0.4492,-0.4483,-0.4461,-0.4511,-0.4534,-0.4544,-0.4424,-0.4423,-0.4423,-0.4422,0,0,-0.4084,-0.4135,-0.4147,-0.4168,-0.421,-0.4244,-0.429,-0.4335,-0.4359,-0.4393,-0.4433,-0.4493,-0.4484,-0.4511,-0.4519,-0.455,-0.4604,-0.4537,-0.4538,-0.4549,-0.4679,-0.4687,-0.4698,-0.4603,-0.4605,-0.4606,-0.4676,0,-0.4151,-0.4233,-0.4243,-0.4316,-0.4356,-0.4354,-0.4395,-0.4425,-0.4441,-0.4478,-0.4496,-0.4539,-0.4523,-0.4539,-0.457,-0.4591,-0.4631,-0.4586,-0.4641,-0.4643,-0.4633,-0.471,-0.4719,-0.4783,-0.4685,-0.4687,-0.4688,0,-0.4241,-0.4276,-0.4353,-0.4388,-0.4405,-0.4441,-0.4482,-0.4517,-0.4551,-0.4561,-0.459,-0.4593,-0.4642,-0.4616,-0.4683,-0.4652,-0.4675,-0.4689,-0.4691,-0.4699,-0.467,-0.472,-0.4804,-0.4814,-0.4702,-0.4701,-0.47,0,-0.4289,-0.4356,-0.441,-0.4428,-0.447,-0.4496,-0.4515,-0.4547,-0.4572,-0.4608,-0.4625,-0.4667,-0.469,-0.4722,-0.4737,-0.4717,-0.4803,-0.4779,-0.4814,-0.4813,-0.4834,-0.4833,-0.4924,-0.4846,-0.4846,-0.4845,-0.4845,0,-0.4364,-0.4411,-0.4432,-0.4466,-0.4518,-0.4529,-0.4581,-0.4599,-0.4627,-0.4665,-0.4666,-0.4701,-0.4718,-0.4755,-0.4767,-0.4821,-0.4831,-0.4841,-0.4844,-0.4842,-0.4841,-0.4859,-0.4855,-0.4848,-0.4847,-0.4847,-0.4846,0,-0.4428,-0.4444,-0.4503,-0.4537,-0.4547,-0.4584,-0.4614,-0.4646,-0.4661,-0.4708,-0.472,-0.4744,-0.4788,-0.4805,-0.486,-0.4868,-0.493,-0.4929,-0.4919,-0.492,-0.4954,-0.4951,-0.5061,-0.5076,-0.4987,-0.4988,-0.4989,0,-0.4476,-0.4512,-0.4549,-0.4574,-0.4593,-0.4633,-0.4658,-0.467,-0.4697,-0.4737,-0.4765,-0.4809,-0.4845,-0.4916,-0.4939,-0.498,-0.4981,-0.5016,-0.4987,-0.4984,-0.4983,-0.4981,-0.4985,-0.5022,-0.5023,-0.5024,-0.5025,0,-0.4559,-0.4565,-0.4601,-0.464,-0.4671,-0.4702,-0.4733,-0.4753,-0.477,-0.48,-0.4845,-0.4872,-0.4927,-0.4971,-0.5013,-0.5033,-0.5032,-0.5033,-0.5044,-0.5043,-0.5036,-0.5041,-0.4935,-0.5031,-0.5031,-0.503,-0.503,-0.5029,-0.4617,-0.4649,-0.468,-0.472,-0.4744,-0.4773,-0.4805,-0.4823,-0.486,-0.4905,-0.4909,-0.4957,-0.4989,-0.5046,-0.5067,-0.5106,-0.5096,-0.5111,-0.5115,-0.5119,-0.5122,-0.5028,-0.5113,-0.5113,-0.5113,-0.5113,-0.5113,0,-0.4701,-0.4721,-0.4757,-0.48,-0.4832,-0.4825,-0.4859,-0.4886,-0.4928,-0.4958,-0.4992,-0.5043,-0.5085,-0.511,-0.5152,-0.5178,-0.5179,-0.5189,-0.5188,-0.5193,-0.5128,-0.5115,-0.5188,-0.5188,-0.5188,-0.5187,-0.5187,-0.5187,-0.4749,-0.4802,-0.4811,-0.4876,-0.4895,-0.4941,-0.4961,-0.4987,-0.501,-0.5067,-0.5101,-0.5117,-0.5144,-0.5188,-0.5226,-0.5233,-0.5249,-0.526,-0.5266,-0.5205,-0.5197,-0.519,-0.5178,-0.5263,-0.5263,-0.5328,-0.5328,-0.5329]},{"header":{"parameterUnit":"m.s-1","parameterCategory":1,"la1":30.2991,"la2":30.254,"lo1":-89.0895,"lo2":-89.0444,"dy":0.0017,"dx":0.0017,"nx":28,"ny":28,"refTime":"2026-01-11T09:00:00:Z","depth":0,"parameterNumber":3,"parameterNumberName":"V-component_of_WINDS"},"data":[0,0,0,0,0,0,0,0,0,0,0,0,0,0,0,0,0,0,0,0,0,0,0,0,0,0,0,0,0,0,0,0,0,0,0,0,0,0,0,0,0,0,0,0,0,0,0,0,0,0,0,0,0,0,0,0,0,0,-7.5257,-7.5259,0,-7.5435,-7.5437,-7.5439,-7.5361,-7.5356,-7.5352,-7.5348,-7.5528,-7.5536,-7.5545,0,0,0,0,0,0,0,0,0,0,0,0,0,-7.4848,-7.4856,-7.5257,-7.5259,-7.5261,-7.5434,-7.5437,-7.5439,-7.5361,-7.5356,-7.5351,-7.5346,-7.5525,-7.5535,-7.5546,0,0,0,0,0,0,0,0,0,0,0,0,0,-7.5025,-7.4858,-7.5256,-7.5243,-7.5244,-7.5434,-7.5437,-7.544,-7.5362,-7.5356,-7.5349,-7.5343,-7.5521,-7.5534,-7.5547,-7.576,0,0,-7.5588,-7.5594,0,0,0,0,0,0,0,0,-7.5015,-7.504,-7.5243,-7.5245,-7.5246,-7.5369,-7.5358,-7.5547,-7.5364,-7.5317,-7.5348,-7.534,-7.548,-7.5496,-7.5544,-7.5768,-7.5776,-7.5589,-7.5597,-7.5603,-7.5606,0,0,0,0,0,0,0,-7.5003,-7.5032,-7.5327,-7.5246,-7.5248,-7.5228,-7.5246,-7.5394,-7.5433,-7.5321,-7.5316,-7.5338,-7.5479,-7.5531,-7.5547,-7.5779,-7.5589,-7.56,-7.5609,-7.5614,-7.6186,-7.6193,0,0,0,0,0,0,-7.4991,-7.5023,-7.5321,-7.5332,-7.5112,-7.5241,-7.5261,-7.5336,-7.5431,-7.544,-7.5343,-7.5334,-7.5512,-7.5532,-7.5553,-7.5809,-7.5603,-7.5615,-7.5623,-7.6179,-7.6187,-7.6195,0,0,0,0,0,0,-7.4983,-7.5019,-7.5314,-7.5176,-7.5212,-7.5255,-7.5339,-7.5343,-7.5394,-7.5448,-7.5454,-7.5389,-7.5507,-7.5535,-7.5709,-7.5814,-7.5621,-7.5633,-7.617,-7.6181,-7.6191,-7.6321,0,0,0,0,0,0,-7.4971,-7.5016,-7.5098,-7.5179,-7.522,-7.5468,-7.5346,-7.5351,-7.5418,-7.5407,-7.5493,-7.5501,-7.5504,-7.569,-7.5722,-7.5829,-7.5643,-7.6161,-7.6175,-7.6188,-7.6307,-7.6335,-7.6358,0,0,0,0,0,-7.4957,-7.5127,-7.5102,-7.5139,-7.5323,-7.5474,-7.5498,-7.5499,-7.5427,-7.5509,-7.5543,-7.5498,-7.5797,-7.5708,-7.5744,-7.5856,-7.6154,-7.6171,-7.6187,-7.6296,-7.6329,-7.6358,0,0,0,0,0,0,-7.5057,-7.5137,-7.5111,-7.5312,-7.5387,-7.5461,-7.5565,-7.5534,-7.5631,-7.5616,-7.5613,-7.5633,-7.5814,-7.5852,-7.5752,-7.6067,-7.5964,-7.5989,-7.6035,-7.6067,-7.6092,-7.6079,-7.5654,0,0,0,0,0,-7.5102,-7.5219,-7.5282,-7.5453,-7.5493,-7.5523,-7.5588,-7.5583,-7.566,-7.5691,-7.5738,-7.5814,-7.5925,-7.5998,-7.6103,-7.6312,-7.633,-7.6407,-7.6432,-7.6453,-7.6474,-7.6587,-7.6622,-7.6249,-7.6249,-7.6248,0,0,-7.5197,-7.5255,-7.5329,-7.5475,-7.5532,-7.5653,-7.555,-7.5681,-7.577,-7.5711,-7.5879,-7.5916,-7.6,-7.6193,-7.628,-7.6231,-7.6581,-7.6474,-7.649,-7.65,-7.6608,-7.6643,-7.6675,-7.626,-7.6258,-7.6256,0,0,-7.5431,-7.5487,-7.5636,-7.5696,-7.5785,-7.5803,-7.5839,-7.5918,-7.5941,-7.6109,-7.6067,-7.6172,-7.6363,-7.6425,-7.6482,-7.674,-7.6702,-7.6774,-7.6907,-7.7018,-7.7047,-7.7073,-7.7166,-7.7199,-7.6795,-7.6795,-7.6796,0,-7.5538,-7.5719,-7.5716,-7.5852,-7.5917,-7.587,-7.602,-7.6078,-7.6196,-7.6242,-7.6184,-7.6424,-7.6477,-7.6684,-7.6747,-7.6794,-7.6835,-7.6765,-7.7043,-7.707,-7.7094,-7.7182,-7.7217,-7.6803,-7.6803,-7.6802,-7.6801,0,-7.5845,-7.5971,-7.6081,-7.6197,-7.6274,-7.6417,-7.6436,-7.6514,-7.6502,-7.6526,-7.6698,-7.6761,-7.6878,-7.6926,-7.6915,-7.7132,-7.7098,-7.7043,-7.694,-7.7138,-7.722,-7.7254,-7.6815,-7.6812,-7.681,-7.6808,0,0,-7.6148,-7.6262,-7.6302,-7.6354,-7.6448,-7.6545,-7.6684,-7.68,-7.6867,-7.695,-7.7067,-7.723,-7.7179,-7.7243,-7.7238,-7.7336,-7.7536,-7.7268,-7.727,-7.7316,-7.7779,-7.7821,-7.786,-7.7511,-7.7518,-7.7523,-7.7772,0,-7.639,-7.6636,-7.6638,-7.6865,-7.6981,-7.6937,-7.7058,-7.7129,-7.7155,-7.7257,-7.7285,-7.7401,-7.7325,-7.7364,-7.7458,-7.7492,-7.7629,-7.7474,-7.762,-7.7625,-7.7601,-7.7903,-7.7948,-7.818,-7.7804,-7.781,-7.7814,0,-7.6705,-7.68,-7.7038,-7.7115,-7.7164,-7.7273,-7.7379,-7.7477,-7.7555,-7.7568,-7.764,-7.762,-7.7762,-7.7655,-7.785,-7.7744,-7.7803,-7.7829,-7.7838,-7.7852,-7.7732,-7.7926,-7.8254,-7.8289,-7.7865,-7.786,-7.7857,0,-7.6903,-7.7089,-7.7256,-7.7301,-7.7396,-7.7474,-7.7516,-7.7589,-7.7658,-7.775,-7.7794,-7.7901,-7.796,-7.8043,-7.8052,-7.7973,-7.8249,-7.8142,-7.8263,-7.8263,-7.8323,-7.832,-7.8666,-7.8361,-7.8361,-7.836,-7.8359,0,-7.7174,-7.7321,-7.7346,-7.7448,-7.7612,-7.7613,-7.7775,-7.781,-7.7875,-7.7983,-7.7951,-7.8053,-7.8059,-7.8164,-7.8172,-7.8332,-7.8359,-7.8373,-7.8373,-7.8376,-7.8375,-7.8416,-7.84,-7.8369,-7.8367,-7.8365,-7.8364,0,-7.7422,-7.7445,-7.7624,-7.7698,-7.772,-7.7838,-7.7901,-7.7999,-7.8022,-7.8159,-7.8191,-7.8228,-7.8349,-7.8367,-7.8509,-7.8514,-7.8707,-7.869,-7.8681,-7.8679,-7.8799,-7.8787,-7.9184,-7.9237,-7.8897,-7.89,-7.8903,0,-7.7594,-7.7706,-7.7793,-7.7864,-7.7911,-7.8025,-7.8096,-7.81,-7.8175,-7.8273,-7.8359,-7.8477,-7.8572,-7.8768,-7.8806,-7.8915,-7.89,-7.9032,-7.8917,-7.8916,-7.8903,-7.8897,-7.8908,-7.9055,-7.9058,-7.9061,-7.9064,0,-7.7896,-7.7901,-7.8005,-7.8113,-7.8198,-7.8283,-7.8362,-7.8422,-7.8436,-7.8522,-7.8646,-7.872,-7.8865,-7.8983,-7.909,-7.9133,-7.9102,-7.91,-7.9134,-7.9138,-7.9128,-7.9136,-7.8742,-7.9091,-7.9088,-7.9086,-7.9085,-7.9084,-7.8112,-7.821,-7.8287,-7.8403,-7.8463,-7.8539,-7.8634,-7.867,-7.8774,-7.8893,-7.8889,-7.9026,-7.9101,-7.9242,-7.9292,-7.9398,-7.9355,-7.9404,-7.9416,-7.9429,-7.9441,-7.9111,-7.9417,-7.9417,-7.9416,-7.9415,-7.9415,0,-7.8412,-7.846,-7.8566,-7.868,-7.8771,-7.8734,-7.882,-7.8899,-7.902,-7.9093,-7.9187,-7.933,-7.9444,-7.9492,-7.9603,-7.9679,-7.9668,-7.9708,-7.9703,-7.9714,-7.9473,-7.9432,-7.9716,-7.9716,-7.9716,-7.9716,-7.9716,-7.9716,-7.858,-7.8744,-7.8759,-7.8952,-7.8998,-7.9133,-7.9185,-7.9254,-7.9313,-7.9474,-7.9569,-7.9599,-7.9662,-7.9778,-7.9881,-7.9892,-7.9935,-7.9982,-7.9987,-7.9761,-7.973,-7.9701,-7.9664,-7.9991,-7.9992,-8.0219,-8.0221,-8.0223]}]]